Starlink 30494

operational
NORAD ID: 57970 Int'l Des: 2023-151 Owner: SPXS Country: US Constellation: starlink
LEOCIRCULAR

Starlink 30494について

説明を読み込み中...

リアルタイム位置

3D地球を読み込み中...

次回通過

高度履歴

Altitude vs Time

uPlot chart will show altitude changes over time

軌道要素

1 57970U 23151G 25351.27073817 .00027109 00000-0 13577-3 0 9996
2 57970 42.9768 309.6883 0001310 277.2396 82.8327 15.81220571124698
Epoch: Dec 17, 2025 • Age: 14 hours

現在のステータス

高度 329.8 km
速度 7.71 km/s
衛星直下点 -15.76°S, 101.82°E
打ち上げ日 Sep 30, 2023
運用期間 2.2 years
タイプ internet

技術仕様

分類 Payload
質量 730.00 kg
乾燥質量 700.00 kg
総質量 730.00 kg
長さ 0.30 m
直径 4.10 m
スパン 29.00 m
形状 Box + pan
製造者 SPXS
バスタイプ Starlink V2M
フェーズステータス In Orbit
所有者/国 SPXS/US

大規模コンステレーション

Loading constellations...